Regional Weather Roundup
Issued by NWS

Home | Current Version | Previous Version | Text Only | Print | Product List | Glossary On
Versions: 1 2 3 4 5 6 7 8 9 10 11 12 13 14 15 16 17 18 19 20 21 22 23 24 25 26 27 28 29 30 31 32 33 34 35 36 37 38 39 40 41 42 43 44 45 46 47 48 49 50
000
ASUS43 KOAX 300802
RWRNE

WEATHER ROUNDUP FOR NEBRASKA
NATIONAL WEATHER SERVICE OMAHA NE
200 AM CST FRI JAN 30 2015

NOTES: SATELLITE DATA IS BEING USED TO AUGMENT CLOUD COVER ABOVE
       12000 FEET.
       "FAIR" INDICATES FEW OR NO CLOUDS BELOW 12,000 FEET WITH NO
       SIGNIFICANT WEATHER AND/OR OBSTRUCTIONS TO VISIBILITY.

  * THESE STATIONS DO NOT REPORT WEATHER SUCH AS RAIN...SNOW OR FOG.

NEZ001>004-019>022-054>056-300900-
NEBRASKA PANHANDLE

CITY           SKY/WX    TMP DP  RH WIND       PRES   REMARKS
SCOTTSBLUFF    MOCLDY    28  21  75 E9        30.32F WCI  19
ALLIANCE       MOCLDY    25  19  78 SE6       30.32F WCI  18
CHADRON        PTCLDY    35  17  47 SW10      30.30F WCI  27
SIDNEY         MOCLDY    29  19  66 S8        30.33F WCI  21
$$

NEZ057>060-069>072-079>082-300900-
SOUTHWEST NEBRASKA

CITY           SKY/WX    TMP DP  RH WIND       PRES   REMARKS
NORTH PLATTE   PTCLDY    18  13  80 CALM      30.43F
IMPERIAL       MOCLDY    29  20  69 S9        30.41F WCI  20
MCCOOK         PTCLDY    21  16  81 SW3       30.45F
$$

NEZ005>010-023>029-035>040-094-300900-
NORTH CENTRAL NEBRASKA

CITY           SKY/WX    TMP DP  RH WIND       PRES   REMARKS
VALENTINE      CLEAR     21  16  81 NE3       30.40S
BROKEN BOW     PTCLDY    16  12  84 CALM      30.45S
ORD            CLEAR     15  12  88 S5        30.48S WCI   8
$$

NEZ041-046>049-061>064-073>077-083>087-300900-
SOUTH CENTRAL NEBRASKA

CITY           SKY/WX    TMP DP  RH WIND       PRES   REMARKS
GRAND ISLAND   PTCLDY    20  18  92 SE6       30.52S WCI  12
HASTINGS       PTCLDY    25  20  81 SE8       30.50F WCI  16
KEARNEY *      CLEAR     21  18  86 CALM      30.48F
$$

NEZ011>018-030>034-042>045-300900-
NORTHEAST NEBRASKA

CITY           SKY/WX    TMP DP  RH WIND       PRES   REMARKS
NORFOLK        CLEAR     19  16  88 CALM      30.51S
COLUMBUS *     PTCLDY    18   9  68 CALM      30.55S
TEKAMAH        CLEAR     20  16  84 NW3       30.55F
$$

NEZ050>053-065>068-078-088>093-300900-
SOUTHEAST NEBRASKA

CITY           SKY/WX    TMP DP  RH WIND       PRES   REMARKS
LINCOLN        PTCLDY    20  17  88 N3        30.56S
OMAHA EPPLEY   CLEAR     23  19  85 N5        30.55S WCI  17
FALLS CITY     CLEAR     19  16  88 NW7       30.55R WCI  10
$$

NEZ044-045-051>053-067-300900-
OMAHA AREA

CITY           SKY/WX    TMP DP  RH WIND       PRES   REMARKS
OMAHA EPPLEY   CLEAR     23  19  85 N5        30.55S WCI  17
OFFUTT AFB     CLEAR     22  17  83 NW5       30.55R WCI  15
$$


USA.gov is the U.S. government's official web portal to all federal, state and local government web resources and services.